Clemson, SC

8:34 PM EST on December 11, 2017 (GMT -0500)
Oconee County Regional

Weather History for KCEU - August, 2014

Change the Weather History Date:

Monday, August 25, 2014

  Actual Average Record
Temperature  
Mean Temperature 78 °F -  
Max Temperature 84 °F 87 °F 102 °F (1943)
Min Temperature 69 °F 66 °F 56 °F (1931)
Cooling Degree Days 12    
Growing Degree Days 28 (Base 50)    
Moisture  
Dew Point 60 °F    
Average Humidity 60    
Maximum Humidity 76    
Minimum Humidity 38    
Precipitation  
Precipitation 0.00 in - - ()
Sea Level Pressure  
Sea Level Pressure 30.09 in    
Wind  
Wind Speed 6 mph (ENE)    
Max Wind Speed 13 mph    
Max Gust Speed 20 mph    
Visibility 10 miles    
Events      
Averages and records for this station are not official NWS values.
T = Trace of Precipitation, MM = Missing Value Source: NWS Daily Summary

Daily Weather History Graph

Daily Weather History Graph

Search for Another Location

Airport or City:

Trip Planner

Search our weather history database for the weather conditions in past years. The results will help you decide how hot, cold, wet, or windy it might be!

Date:

Astronomy

Aug. 25, 2014 Rise Set
Actual Time 6:59 AM EDT 8:07 PM EDT
Civil Twilight 6:33 AM EDT 8:33 PM EDT
Nautical Twilight 6:02 AM EDT 9:04 PM EDT
Astronomical Twilight 5:30 AM EDT 9:36 PM EDT
Moon 7:01 AM EDT (8/25) 8:00 PM EDT (8/25)
Length of Visible Light 13h 59m
Length of Day
13h 07m
New Moon, 0% of the Moon is Illuminated
Aug 25
New Moon
Sep 2
First Quarter
Sep 8
Full
Sep 15
Last Quarter
Sep 24
New

Hourly Weather History & Observations

Time (EDT) Temp. Heat Index Dew Point Humidity Pressure Visibility Wind Dir Wind Speed Gust Speed Precip Events Conditions
12:54 AM 73.0 °F - 64.9 °F 76% 30.09 in 10.0 mi NNE 4.6 mph - N/A   Scattered Clouds
1:54 AM 73.9 °F - 66.0 °F 76% 30.09 in 10.0 mi NE 5.8 mph - N/A   Overcast
2:23 AM 73.9 °F - 64.9 °F 73% 30.12 in 10.0 mi Variable 5.8 mph - N/A   Mostly Cloudy
2:49 AM 73.4 °F - 64.4 °F 73% 30.11 in 10.0 mi Variable 5.8 mph - N/A   Scattered Clouds
2:54 AM 73.9 °F - 64.9 °F 73% 30.09 in 10.0 mi ENE 3.5 mph - N/A   Scattered Clouds
3:21 AM 73.0 °F - 64.9 °F 76% 30.11 in 10.0 mi ENE 4.6 mph - N/A   Mostly Cloudy
3:54 AM 73.0 °F - 64.9 °F 76% 30.09 in 10.0 mi ENE 5.8 mph - N/A   Partly Cloudy
5:54 AM 72.0 °F - 63.0 °F 73% 30.09 in 10.0 mi ENE 5.8 mph - N/A   Overcast
6:23 AM 72.0 °F - 64.0 °F 76% 30.12 in 10.0 mi ENE 6.9 mph - N/A   Mostly Cloudy
6:30 AM 72.0 °F - 63.0 °F 73% 30.12 in 10.0 mi ENE 6.9 mph - N/A   Scattered Clouds
6:54 AM 71.1 °F - 62.1 °F 73% 30.10 in 10.0 mi East 5.8 mph - N/A   Clear
8:54 AM 72.0 °F - 60.1 °F 66% 30.12 in 10.0 mi East 6.9 mph - N/A   Overcast
9:54 AM 73.0 °F - 59.0 °F 61% 30.12 in 10.0 mi Variable 6.9 mph - N/A   Overcast
10:54 AM 75.9 °F - 55.0 °F 48% 30.12 in 10.0 mi ENE 11.5 mph 19.6 mph N/A   Overcast
11:54 AM 79.0 °F - 55.9 °F 45% 30.12 in 10.0 mi North - - N/A   Overcast
12:54 PM 81.0 °F 80.8 °F 55.9 °F 42% 30.10 in 10.0 mi ENE 9.2 mph - N/A   Mostly Cloudy
1:54 PM 82.0 °F 81.7 °F 57.0 °F 42% 30.09 in 10.0 mi ENE 11.5 mph - N/A   Partly Cloudy
2:54 PM 84.0 °F 83.3 °F 57.0 °F 40% 30.07 in 10.0 mi NE 12.7 mph - N/A   Clear
3:54 PM 84.9 °F 84.2 °F 57.9 °F 40% 30.06 in 10.0 mi ENE 11.5 mph - N/A   Clear
4:54 PM 84.9 °F 83.9 °F 57.0 °F 38% 30.04 in 10.0 mi NE 10.4 mph - N/A   Clear
5:54 PM 82.9 °F 82.0 °F 55.0 °F 38% 30.04 in 10.0 mi East 8.1 mph - N/A   Clear
6:54 PM 82.9 °F 82.0 °F 55.0 °F 38% 30.04 in 10.0 mi East 5.8 mph - N/A   Clear
7:54 PM 77.0 °F - 57.9 °F 52% 30.05 in 10.0 mi SE 3.5 mph - N/A   Clear
8:54 PM 75.0 °F - 57.0 °F 53% 30.07 in 10.0 mi East 3.5 mph - N/A   Clear
9:54 PM 73.0 °F - 57.9 °F 59% 30.09 in 10.0 mi NNE 4.6 mph - N/A   Clear
11:54 PM 69.1 °F - 57.9 °F 68% 30.12 in 10.0 mi North 3.5 mph - N/A   Clear